User: anonymous   Login
Location: Unspecified
(0.0000°N, 0.0000°E)
Time: 01:03:05
(UTC+00:00)
Language:

Snapshot - Orbit

View from above orbital plane
View from above orbital plane
View from above satellite
View from above satellite

Ground track
Ground track

The orbit data is extracted from the following two-line orbital elements,

1  1314U 65027A   19082.13360840 -.00000001  00000-0 -28736-4 0  9997
2  1314  90.3014 302.6813 0029854 344.7181 127.8230 12.91756324290191
Epoch (UTC): 23 March 2019 03:12:23
Eccentricity: 0.0029854
inclination: 90.3014°
perigee height: 1271 km
apogee height: 1317 km
right ascension of ascending node: 302.6813°
argument of perigee: 344.7181°
revolutions per day: 12.91756324
mean anomaly at epoch: 127.8230°
orbit number at epoch: 29019

The dashed part of the orbit path shows where the satellite is in the earth's shadow,  

DLR